Poughkeepsie, NY

4:16 AM EDT on May 21, 2018 (GMT -0400)
Dutchess County

Weather History for KPOU - December, 2012

Change the Weather History Date:

Sunday, December 16, 2012

  Actual Average Record
Temperature  
Mean Temperature 36 °F 31 °F  
Max Temperature 39 °F 40 °F 59 °F (1971)
Min Temperature 32 °F 22 °F 3 °F (1961)
Degree Days  
Heating Degree Days 29 34  
Month to date heating degree days 425 502  
Since 1 July heating degree days 1571 1780  
Cooling Degree Days 0 0  
Month to date cooling degree days 0 0  
Year to date cooling degree days 895 672  
Moisture  
Dew Point 30 °F    
Average Humidity 77    
Maximum Humidity 85    
Minimum Humidity 69    
Precipitation  
Precipitation T in 0.11 in 0.94 in (2007)
Month to date precipitation 0.61 1.89  
Year to date precipitation 32.87 44.89  
Sea Level Pressure  
Sea Level Pressure 30.08 in    
Wind  
Wind Speed 4 mph (ENE)    
Max Wind Speed 12 mph    
Max Gust Speed 17 mph    
Visibility 10 miles    
Events Rain    
T = Trace of Precipitation, MM = Missing Value Source: NWS Daily Summary

Daily Weather History Graph

Daily Weather History Graph

Search for Another Location

Airport or City:

Astronomy

Dec. 16, 2012 Rise Set
Actual Time 7:16 AM EST 4:26 PM EST
Civil Twilight 6:44 AM EST 4:58 PM EST
Nautical Twilight 6:09 AM EST 5:33 PM EST
Astronomical Twilight 5:36 AM EST 6:06 PM EST
Moon 9:45 AM EST (12/16) 8:40 PM EST (12/16)
Length of Visible Light 10h 13m
Length of Day
9h 10m
Waxing Crescent, 16% of the Moon is Illuminated
Dec 16
Waxing Crescent
Dec 20
First Quarter
Dec 28
Full
Jan 4
Last Quarter
Jan 11
New

Hourly Weather History & Observations

Time (EST) Temp. Windchill Dew Point Humidity Pressure Visibility Wind Dir Wind Speed Gust Speed Precip Events Conditions
12:53 AM 33.1 °F 30.0 °F 24.1 °F 70% 30.21 in 10.0 mi NNE 3.5 mph - N/A   Mostly Cloudy
1:53 AM 33.1 °F - 24.1 °F 70% 30.22 in 10.0 mi Calm Calm - N/A   Overcast
2:53 AM 32.0 °F - 24.1 °F 73% 30.19 in 10.0 mi Calm Calm - N/A   Mostly Cloudy
3:53 AM 33.1 °F - 25.0 °F 72% 30.17 in 10.0 mi Calm Calm - N/A   Overcast
4:20 AM 33.8 °F - 24.8 °F 70% 30.17 in 10.0 mi Calm Calm - N/A   Overcast
4:53 AM 34.0 °F - 25.0 °F 70% 30.16 in 10.0 mi Calm Calm - N/A   Overcast
5:53 AM 34.0 °F - 27.0 °F 75% 30.15 in 10.0 mi Calm Calm - N/A   Overcast
6:53 AM 35.1 °F - 28.0 °F 76% 30.14 in 10.0 mi Calm Calm - N/A   Overcast
7:53 AM 39.0 °F - 30.9 °F 73% 30.14 in 10.0 mi Calm Calm - N/A   Overcast
8:53 AM 37.9 °F 30.9 °F 30.0 °F 73% 30.13 in 10.0 mi East 10.4 mph - N/A   Overcast
9:53 AM 37.9 °F 32.1 °F 30.9 °F 76% 30.13 in 8.0 mi ESE 8.1 mph - N/A   Overcast
10:53 AM 37.0 °F 34.5 °F 32.0 °F 82% 30.12 in 10.0 mi Variable 3.5 mph - 0.00 in   Overcast
11:53 AM 37.9 °F 35.5 °F 32.0 °F 79% 30.09 in 10.0 mi Variable 3.5 mph - 0.00 in Rain Light Rain
12:53 PM 37.9 °F 33.5 °F 32.0 °F 79% 30.07 in 10.0 mi Variable 5.8 mph - 0.00 in   Overcast
1:15 PM 37.4 °F 33.8 °F 32.0 °F 81% 30.07 in 10.0 mi NE 4.6 mph - N/A   Overcast
1:53 PM 37.9 °F 31.5 °F 32.0 °F 79% 30.04 in 10.0 mi ESE 9.2 mph - N/A   Overcast
2:53 PM 37.9 °F 32.7 °F 32.0 °F 79% 30.04 in 10.0 mi Variable 6.9 mph - N/A   Overcast
3:53 PM 37.9 °F 35.5 °F 32.0 °F 79% 30.03 in 10.0 mi East 3.5 mph - N/A   Overcast
4:53 PM 39.0 °F 36.8 °F 32.0 °F 76% 30.02 in 10.0 mi Variable 3.5 mph - 0.00 in   Overcast
5:01 PM 39.2 °F 35.0 °F 32.0 °F 75% 30.02 in 10.0 mi East 5.8 mph - N/A   Overcast
5:53 PM 37.9 °F 33.5 °F 33.1 °F 83% 30.01 in 10.0 mi NE 5.8 mph - 0.00 in Rain Light Rain
6:05 PM 37.4 °F 32.8 °F 33.8 °F 87% 30.01 in 10.0 mi ENE 5.8 mph - 0.00 in   Overcast
6:53 PM 37.9 °F 32.7 °F 33.1 °F 83% 30.01 in 10.0 mi NNE 6.9 mph - 0.00 in   Overcast
7:16 PM 37.4 °F 32.1 °F 33.8 °F 87% 30.00 in 10.0 mi ENE 6.9 mph - 0.00 in Rain Light Rain
7:53 PM 37.9 °F - 33.1 °F 83% 29.99 in 9.0 mi Calm Calm - 0.00 in   Overcast
8:53 PM 39.0 °F 35.7 °F 33.1 °F 79% 29.98 in 10.0 mi NE 4.6 mph - N/A   Overcast
9:53 PM 39.0 °F 34.0 °F 32.0 °F 76% 29.97 in 10.0 mi ENE 6.9 mph - N/A   Overcast
10:53 PM 39.0 °F 35.7 °F 32.0 °F 76% 29.97 in 10.0 mi NE 4.6 mph - N/A   Overcast
11:53 PM 39.0 °F 32.8 °F 32.0 °F 76% 29.95 in 10.0 mi East 9.2 mph - N/A   Overcast